Aérodrome :
LOGIN :

S'inscrire | Disclaimer

   EN    FR    IT 

 










Légende :    VFR   VFR Marginal   IFR   IFR Intensif   IFR Très Intensif
Visi : 
Plafond : 
>= 8 km
>= 3000ft
5 à 8 km
1000 à 3000 ft
1500m à 5 km
500 à 1000 ft
800 à 1500m
200 à 500 ft
< 800m
< 200 ft
Symboles :   Orages  Brouillard  Fortes neiges  Fortes précipitations  Vent > 20 kt
SIGMETs :   Divers  Orages  Givrage  Turbulence  Onde Orograph.  Cendres Volcan.






- Altitude de l'aérodrome : 41 ft


LIRE - Pratica di Mare Air Base Pomezia

DERNIER METAR :
  • 170555Z 14009KT 9999 -TSRA SCT016 FEW018CB SCT040 22/19 Q1012 RERA RMK OVC VIS MIN 9999 WIND THR13 16011KT WIND THR31 /////KT BLU

METARs EXPIRÉS :
  • 170455Z VRB03KT 9999 -TSRA SCT015 FEW016CB SCT030 22/20 Q1015 RMK OVC VIS MIN 9999 WIND THR13 06002KT WIND THR31 /////KT BLU
  • 170405Z 12004KT 9999 -TSRA SCT016 FEW018CB SCT025 22/20 Q1014 RMK OVC VIS MIN 9999 WIND THR13 15003KT WIND THR31 /////KT BLU

TAF TAF LIRE
Valide du 17 à 06h jusqu'au 17 à 15h UTC


170500Z 1706/1715 17012KT 9999 FEW020 SCT030
TEMPO 1706/1711 5000 TSRA FEW020CB BKN030



MET'MAP, la Météo Aéronautique d'un coup d'oeil ! - Copyright ORBIFLY Décembre 2007 - Disclaimer

ORBIFLY MET'MAP TEAM :

Programmation & Développement : Alexandra Zaïnal
Sur une idée originale de : Baudouin d'Aumeries
Assistance à la programmation : Marc-Olivier Méhu
Soutien technique & logistique : Manuel Goepfert

Contact : metmap@orbifly.com




SOURCES & CREDITS :

   NOAA